DW7901 Weather Reports


time (UTC)temp
C
wind
direction
speed
KPH
gust
KPH
rain 1hr
cm
rain 24hr
cm
rain mn
cm
humidity
%
barometer
mb
20260905182004 17 242 1.6 6.4 0.00 0.05 0.05 48 1019.0
20260905181004 17 238 4.8 9.7 0.00 0.05 0.05 47 1019.2
20260905180005 17 231 3.2 6.4 0.00 0.05 0.05 46 1019.2
20260905175004 18 222 3.2 12.9 0.00 0.05 0.05 45 1019.1
20260905174004 18 234 3.2 8.0 0.00 0.05 0.05 44 1019.2
20260905173005 19 234 3.2 11.3 0.00 0.05 0.05 42 1019.0
20260905172004 19 240 3.2 8.0 0.00 0.05 0.05 41 1019.0
20260905171003 20 260 3.2 11.3 0.00 0.05 0.05 39 1019.1
20260905170004 20 266 1.6 12.9 0.00 0.05 0.05 37 1018.8
20260905165004 20 313 3.2 12.9 0.00 0.05 0.05 35 1018.8
20260905164004 21 334 4.8 14.5 0.00 0.05 0.05 33 1019.0
20260905163004 21 266 4.8 19.3 0.00 0.05 0.05 32 1018.9
20260905160004 22 310 8.0 24.1 0.00 0.05 0.05 28 1018.5
20260905155004 24 266 6.4 24.1 0.00 0.05 0.05 24 1018.6
20260905154004 25 322 6.4 25.7 0.00 0.05 0.05 23 1018.2
20260905153004 23 268 12.9 24.1 0.00 0.05 0.05 27 1018.5
20260905152004 21 333 11.3 27.4 0.00 0.05 0.05 30 1018.4
20260905151004 22 305 14.5 27.4 0.00 0.05 0.05 28 1018.4
20260905144004 25 313 3.2 27.4 0.00 0.05 0.05 28 1018.2
20260905143004 24 312 14.5 37.0 0.00 0.05 0.05 27 1018.2
20260905142004 25 222 8.0 35.4 0.00 0.05 0.05 25 1018.1
20260905141004 23 340 14.5 32.2 0.00 0.05 0.05 29 1017.8
20260905140005 23 300 24.1 35.4 0.00 0.05 0.05 32 1018.0
20260905135004 22 328 12.9 29.0 0.00 0.05 0.05 32 1018.0
20260905134003 22 337 17.7 29.0 0.00 0.05 0.05 32 1018.0
20260905133005 23 278 11.3 37.0 0.00 0.05 0.05 31 1018.0
20260905132004 23 269 12.9 30.6 0.00 0.05 0.05 32 1017.6
20260905131004 23 313 6.4 33.8 0.00 0.05 0.05 32 1017.8
20260905130005 22 314 11.3 33.8 0.00 0.05 0.05 31 1017.7
20260905125004 24 283 22.5 38.6 0.00 0.05 0.05 32 1017.9
20260905124004 22 318 20.9 37.0 0.00 0.05 0.05 32 1017.9
20260905123005 22 334 14.5 30.6 0.00 0.05 0.05 33 1018.1
20260905122004 23 291 12.9 25.7 0.00 0.05 0.05 31 1018.1
20260905121004 24 311 3.2 30.6 0.00 0.05 0.05 32 1018.1
20260905120005 22 295 11.3 24.1 0.00 0.05 0.05 38 1018.3
20260905115004 22 270 11.3 32.2 0.00 0.05 0.05 38 1018.3
20260905114004 23 184 12.9 29.0 0.00 0.05 0.05 35 1018.2
20260905113004 23 254 6.4 35.4 0.00 0.05 0.05 36 1018.4
20260905112004 23 253 4.8 25.7 0.00 0.05 0.05 38 1018.4
20260905104004 21 296 17.7 33.8 0.00 0.05 0.05 43 1018.4
20260905103004 21 232 6.4 24.1 0.00 0.05 0.05 49 1018.1
20260905102004 21 250 3.2 29.0 0.00 0.05 0.05 49 1018.1
20260905101004 21 268 8.0 27.4 0.00 0.05 0.05 49 1018.0
20260905095004 20 270 9.7 33.8 0.00 0.05 0.05 52 1017.9
20260905094004 21 295 9.7 25.7 0.00 0.05 0.05 50 1018.1
20260905093004 21 303 19.3 33.8 0.00 0.05 0.05 52 1017.8
20260905091004 20 293 3.2 32.2 0.00 0.05 0.05 55 1017.8
20260905090004 20 251 16.1 35.4 0.00 0.05 0.05 56 1018.0
20260905085003 20 199 8.0 27.4 0.00 0.05 0.05 60 1018.1
20260905084005 19 238 6.4 29.0 0.00 0.05 0.05 63 1017.9
20260905083004 18 261 14.5 35.4 0.00 0.05 0.05 65 1018.0
20260904215003 22 220 12.9 32.2 0.00 0.00 0.00 50 1010.6
20260904214004 22 230 8.0 27.4 0.00 0.00 0.00 50 1010.4
20260904213003 22 204 19.3 29.0 0.00 0.00 0.00 50 1010.6
20260904211003 22 217 12.9 24.1 0.00 0.00 0.00 51 1010.7
20260904210004 22 212 12.9 27.4 0.00 0.00 0.00 51 1010.6
20260904205003 22 217 9.7 24.1 0.00 0.00 0.00 52 1010.8
20260904204004 22 220 12.9 27.4 0.00 0.00 0.00 52 1010.7
20260904203004 22 199 14.5 24.1 0.00 0.00 0.00 52 1010.9
20260904202004 22 216 12.9 32.2 0.00 0.00 0.00 51 1010.8
20260904201003 22 221 12.9 25.7 0.00 0.00 0.00 51 1011.3
20260904195004 22 211 8.0 24.1 0.00 0.00 0.00 51 1011.7
20260904194004 22 214 6.4 30.6 0.00 0.00 0.00 51 1011.7
20260904193003 22 183 11.3 22.5 0.00 0.00 0.00 52 1011.8
20260904192003 22 212 12.9 24.1 0.00 0.00 0.00 52 1012.1
20260904191004 22 231 11.3 20.9 0.00 0.00 0.00 52 1012.1
20260904190004 22 193 6.4 24.1 0.00 0.00 0.00 52 1012.3
20260904184004 22 195 6.4 19.3 0.00 0.00 0.00 54 1012.3
20260904183004 22 223 12.9 19.3 0.00 0.00 0.00 55 1012.4